TIME,DELAY(SENSOR),PRES,OXYGEN,RAWTEMP,T(OPTODE),TCPHASE,FLUOR,BETA(BETA700),BETA(BETA412),BETA(BETA440),CDOM,C(CSC),ED(ED412.40),ED(ED444.00),ED(ED489.70),ED(ED554.30),LU(LU411.80),LU(LU443.40),LU(LU489.60),LU(LU554.10),COMP,TILTX,TILTY,CHECK
1367985289,5807,810.3699951171875000,41.6007499694824200,653.4216918945312000,4.8443031311035160,54.6824111938476560,52,100,86,79,78,14705,2147750116,2147422418,2148009005,2147873590,2147639808,2147061924,2148259282,2147194486,3086,4,13,10065
1367988885,5811,862.7999877929688000,45.7253189086914060,659.9813842773438000,4.6285858154296875,54.1550102233886700,54,107,90,78,80,14708,2147755986,2147421421,2148012726,2147877750,2147641554,2147053632,2148258633,2147198272,338,4,13,54290
1367992485,5806,875.5000000000000000,45.0331306457519500,661.9542846679688000,4.5636119842529300,54.2718696594238300,53,104,84,79,79,14708,2147754761,2147423195,2148009197,2147874669,2147637202,2147057636,2148261723,2147197129,567,4,13,30648
1367996085,5812,905.8699951171875000,44.9835395812988300,663.2736816406250000,4.5201358795166020,54.3007011413574200,53,98,85,79,80,14706,2147756800,2147424932,2148011126,2147874925,2147641408,2147056576,2148259520,2147197458,3203,4,13,16874
1367999685,5810,906.0300292968750000,47.2373313903808600,664.3397216796875000,4.4849967956542970,53.9846611022949200,53,99,84,80,80,14709,2147751296,2147423753,2148011209,2147874505,2147641088,2147059072,2148258432,2147193682,3221,4,13,35008
1368003285,5811,916.2600097656250000,45.2697792053222660,663.7011718750000000,4.5060458183288570,54.2644996643066400,52,98,86,79,79,14708,2147753472,2147422866,2148008045,2147875867,2147640905,2147055862,2148258450,2147193216,3427,4,13,20069
1368006885,5807,941.6599731445312000,45.6651496887207000,666.1972045898438000,4.4237370491027830,54.2349090576171900,53,100,85,78,80,14706,2147753243,2147425069,2148009088,2147874313,2147641910,2147053650,2148260635,2147199314,686,4,13,2384
1368010485,5806,945.0700073242188000,45.7885704040527340,666.2656250000000000,4.4214820861816410,54.2206192016601560,53,100,89,81,80,14706,2147754806,2147425828,2148008173,2147876105,2147640987,2147057161,2148260333,2147199652,158,4,13,4257
1368014085,5807,942.9799804687500000,45.7874298095703100,666.8015136718750000,4.4038009643554690,54.2264709472656250,54,148,91,79,79,14704,2147758765,2147423232,2148009353,2147874715,2147637860,2147058249,2148262729,2147195520,270,4,13,53304
1368017685,5806,955.7800292968750000,46.8825187683105500,670.2791748046875000,4.2889728546142580,54.1115798950195300,53,99,89,80,80,14706,2147755062,2147425024,2148009581,2147874797,2147642157,2147051163,2148263853,2147197842,200,4,13,64704
1368021285,5810,964.7000122070312000,47.7540588378906250,671.6646118164062000,4.2431960105896000,54.0054702758789060,52,100,86,79,80,14704,2147756105,2147424731,2148006710,2147877348,2147639963,2147057974,2148263908,2147197988,3494,4,13,38759
1368024885,5808,962.3400268554688000,47.1554489135742200,671.1132202148438000,4.2614169120788570,54.0820503234863300,51,99,88,78,79,14700,2147755757,2147424045,2148010176,2147876406,2147641865,2147059474,2148260589,2147198930,455,4,13,59429
1368028485,5809,984.9400024414062000,49.4568595886230500,673.7510986328125000,4.1742038726806640,53.7955894470214840,52,97,86,79,79,14701,2147754971,2147424237,2148008905,2147874578,2147640493,2147057389,2148265060,2147195812,46,4,13,18153
1368032085,5807,982.5900268554688000,49.7519912719726560,675.1508178710938000,4.1278948783874510,53.7724304199218750,53,98,84,77,81,14699,2147759890,2147425106,2148007222,2147877558,2147641133,2147056173,2148264411,2147201782,3445,4,13,21577
1368035685,5811,988.6500244140625000,49.9700698852539060,674.9453735351562000,4.1346931457519530,53.7351989746093750,53,98,88,78,79,14698,2147759552,2147424987,2148010121,2147872548,2147641938,2147053568,2148256320,2147198226,3091,4,13,11013
1368039285,5808,989.0399780273438000,49.5996818542480500,674.4116210937500000,4.1523528099060060,53.7802009582519500,52,97,85,78,79,14696,2147757897,2147424813,2148010404,2147873060,2147642029,2147050605,2148261046,2147199213,37,4,13,39939
1368042885,5810,996.0399780273438000,49.8026008605957000,673.3157958984375000,4.1886019706726070,53.7422294616699200,52,98,86,79,79,14687,2147757824,2147423030,2148010541,2147876699,2147640841,2147055332,2148261202,2147196617,38,5,13,63050
1368046485,5809,997.3599853515625000,49.3479804992675800,673.3336791992188000,4.1880087852478030,53.8018684387207000,53,98,83,78,81,14693,2147755977,2147426669,2148009846,2147872923,2147640704,2147055808,2148262400,2147198683,3464,4,13,55592
1368050085,5810,1002.9899902343750000,48.0325012207031250,671.9456787109375000,4.2339000701904300,53.9682998657226560,52,98,82,78,80,14692,2147757814,2147424960,2148008585,2147872502,2147639725,2147059026,2148260672,2147194267,3485,4,13,56173
1368053685,5809,1008.2399902343750000,47.5870285034179700,671.5062866210938000,4.2484250068664550,54.0281410217285160,52,103,85,80,80,14690,2147759744,2147424064,2148010130,2147871872,2147642358,2147056000,2148259611,2147201590,3398,4,13,37072
1368057285,5812,1004.9199829101562000,47.3023300170898440,671.8845825195312000,4.2359237670898440,54.0741081237793000,52,98,85,80,80,14688,2147757650,2147423158,2148011638,2147872768,2147640036,2147057280,2148257152,2147198555,19,4,13,19780
1368060885,5811,998.5800170898438000,47.5109786987304700,672.2045898437500000,4.2253441810607910,54.0471611022949200,52,100,84,80,80,14692,2147758436,2147423378,2148011986,2147875318,2147637933,2147056649,2148259766,2147198738,74,4,13,31313
1368064485,5810,999.8300170898438000,47.8560600280761700,672.0695800781250000,4.2298069000244140,53.9984588623046900,52,99,86,79,80,14692,2147760411,2147424146,2148008795,2147875337,2147640201,2147058569,2148262006,2147196827,3577,4,13,56939
1368068085,5810,997.3800048828125000,47.8460617065429700,672.2921752929688000,4.2224459648132320,54.0023384094238300,52,99,87,80,80,14691,2147756306,2147425700,2148009801,2147873097,2147639853,2147060690,2148260708,2147194221,3418,4,13,34368
1368071685,5809,993.4299926757812000,49.5455818176269500,673.7069702148438000,4.1756629943847660,53.7796707153320300,52,98,88,79,81,14691,2147754358,2147422528,2148008969,2147875529,2147638409,2147056018,2148259346,2147194770,196,4,13,9840
1368075285,5811,995.6799926757812000,49.6356697082519500,673.5579223632812000,4.1805949211120605,53.7631492614746100,52,100,86,77,80,14687,2147758281,2147424649,2148008749,2147878198,2147645211,2147052278,2148259145,2147198372,74,4,13,42633
1368078885,5808,998.6799926757812000,49.7872505187988300,673.4860839843750000,4.1829700469970700,53.7408981323242200,52,101,84,79,79,14687,2147757376,2147424164,2148010413,2147875830,2147641206,2147050157,2148260854,2147196973,519,4,13,30115
1368082485,5810,999.7000122070312000,49.4747009277343750,673.3754272460938000,4.1866297721862790,53.7826995849609400,53,97,86,79,79,14687,2147756516,2147422528,2148011026,2147876800,2147642706,2147055387,2148263680,2147194066,214,4,13,33179
1368086085,5811,1003.8699951171875000,48.8939590454101560,673.1375732421875000,4.1944937705993650,53.8648986816406250,51,99,85,77,80,14686,2147753234,2147424905,2148011730,2147874157,2147639506,2147049554,2148262646,2147197449,283,4,13,54856
1368089685,5811,1003.3800048828125000,48.0416107177734400,672.9187011718750000,4.2017331123352050,53.9782600402832000,52,102,87,77,81,14687,2147752649,2147424018,2148009883,2147874980,2147642651,2147059849,2148255844,2147195904,3593,4,13,17686
1368093285,5808,1000.6199951171875000,48.4837608337402340,673.4063110351562000,4.1856079101562500,53.9267311096191400,51,97,83,79,80,14685,2147757257,2147422619,2148010724,2147878153,2147640667,2147056557,2148263195,2147195556,55,4,13,47554
1368096885,5810,1001.4000244140625000,48.7435913085937500,673.3173828125000000,4.1885490417480470,53.8852615356445300,52,97,86,78,81,14686,2147756306,2147423332,2148011337,2147872923,2147642944,2147055286,2148263259,2147200393,3518,4,13,50765
1368100485,5809,997.3699951171875000,48.5096702575683600,673.5767211914062000,4.1799740791320800,53.9203910827636700,51,96,87,78,81,14683,2147757147,2147424868,2148009874,2147871744,2147641106,2147052224,2148260452,2147197933,28,4,13,32108
1368104085,5809,996.9099731445312000,49.1032409667968750,673.9760131835938000,4.1667671203613280,53.8445396423339840,52,98,84,79,80,14685,2147756790,2147424173,2148012854,2147872923,2147639149,2147051254,2148260205,2147195044,3563,4,13,59210
1368107685,5809,995.5800170898438000,48.7121200561523440,673.8964843750000000,4.1693940162658690,53.8993988037109400,53,98,79,78,80,14681,2147756809,2147425590,2148013952,2147876141,2147640009,2147056018,2148254628,2147197769,119,4,13,35266
1368111285,5808,995.6799926757812000,49.2175788879394500,673.4157714843750000,4.1852931976318360,53.8229789733886700,53,99,87,79,80,14681,2147754806,2147422976,2148014729,2147873536,2147642304,2147059638,2148255158,2147196845,152,4,13,33702
1368114885,5809,998.5700073242188000,49.2045097351074200,674.1093139648438000,4.1623549461364750,53.8302383422851560,52,98,85,78,80,14681,2147757586,2147425234,2148010331,2147875382,2147643684,2147053485,2148258486,2147198710,190,4,13,59047
1368118485,5809,995.3400268554688000,49.1450195312500000,674.3895263671875000,4.1530880928039550,53.8441200256347660,51,99,85,79,80,14682,2147758528,2147425462,2148010413,2147873033,2147640758,2147054098,2148259620,2147196306,3013,4,13,58459
1368122085,5810,994.9500122070312000,49.4758605957031250,675.5053100585938000,4.1161627769470215,53.8117408752441400,52,97,85,79,81,14681,2147754477,2147425828,2148011904,2147874898,2147642486,2147059035,2148264182,2147194477,104,4,13,34854
1368125685,5811,995.5499877929688000,50.2665290832519500,675.7119750976562000,4.1093220710754395,53.7088890075683600,52,99,87,78,80,14680,2147755620,2147424228,2148012114,2147872740,2147640786,2147062820,2148259382,2147196882,3445,4,13,44305
1368129285,5805,989.9000244140625000,49.5699882507324200,676.0825805664062000,4.0970549583435060,53.8078193664550800,52,98,88,79,80,14675,2147755638,2147424813,2148011821,2147874688,2147639469,2147053046,2148263305,2147198436,109,4,13,22040
1368130256,5809,993.7700195312500000,49.5204887390136700,676.3201293945312000,4.0891928672790530,53.8165206909179700,52,100,85,79,80,14678,2147753261,2147424274,2148011666,2147872512,2147640640,2147054299,2148261577,2147199488,107,4,13,28663
